Flag for Cambodia Weather past 2 weeks in Phnom Penh, Cambodia

81 °F

Passing clouds.

Feels Like: 87 °F
Forecast: 75 / 91 °F
Wind: 2 mph from North

Location: Phnom-Penh / Pochentong

Current Time: Oct 8, 2015 at 4:53:41 AM

Latest Report: Oct 8, 2015 at 1:00 AM

Visibility: 6 mi

Pressure: 29.83 "Hg

Humidity: 89%

Dew point: 77 °F

Location of Phnom PenhLocation

Historic Weather in Phnom Penh — Graph


Phnom Penh temperature yesterday

Maximum temperature yesterday: 93 °F (at 3:30 PM)
Minimum temperature yesterday: 81 °F (at 12:00 AM)
Average temperature yesterday: 85 °F

Past Weeks' High & Low Weather Summary

High95 °F (Sep 26, 2:30 PM)100% (Sep 23, 6:00 AM)29.92 "Hg (Sep 23, 6:00 AM)
Low77 °F (Sep 24, 6:00 AM)49% (Sep 24, 2:00 PM)29.56 "Hg (Oct 3, 12:00 PM)
Average85 °F74%29.78 "Hg
* Reported Sep 23 1:00 AM — Oct 8 1:00 AM, Phnom Penh, Weather by CustomWeather, © 2015

Note: Actual official high and low records may vary slightly from our data, if they occured in-between our weather recording intervals... More about our weather records


Phnom Penh weather history for previous 24 hours

Time TempWeatherWind HumidityBarometerVisibility
1:00 AM
Thu, Oct 8
81 °FPassing clouds.2 mph89%29.83 "Hg6 mi
12:30 AM81 °FPassing clouds.2 mph89%29.83 "Hg6 mi
12:00 AM81 °FLight rain. Passing clouds.1 mph89%29.86 "Hg6 mi
11:30 PM
Wed, Oct 7
81 °FPassing clouds.2 mph89%29.86 "Hg6 mi
11:00 PM81 °FPassing clouds.1 mph89%29.86 "Hg6 mi
10:30 PM81 °FPassing clouds.2 mph89%29.86 "Hg6 mi
10:00 PM81 °FPassing clouds.7 mph89%29.86 "Hg6 mi
9:30 PM81 °FPassing clouds.5 mph84%29.86 "Hg6 mi
9:00 PM82 °FPassing clouds.5 mph79%29.86 "Hg6 mi
8:30 PM82 °FPassing clouds.6 mph79%29.83 "Hg6 mi
8:00 PM82 °FPassing clouds.5 mph79%29.83 "Hg6 mi
7:30 PM82 °FPassing clouds.5 mph79%29.83 "Hg6 mi
7:00 PM84 °FPassing clouds.5 mph70%29.80 "Hg6 mi
6:30 PM84 °FPassing clouds.8 mph79%29.80 "Hg6 mi
6:00 PM86 °FPartly cloudy.12 mph75%29.80 "HgN/A
5:30 PM88 °FBroken clouds.2 mph66%29.77 "HgN/A
5:00 PM91 °FScattered clouds.1 mph52%29.77 "HgN/A
4:30 PM93 °FScattered clouds.2 mph49%29.74 "HgN/A
4:00 PM93 °FScattered clouds.No wind53%29.74 "HgN/A
3:30 PM93 °FScattered clouds.1 mph53%29.74 "HgN/A
3:00 PM91 °FScattered clouds.1 mph56%29.74 "HgN/A
2:30 PM86 °FScattered clouds.2 mph84%29.74 "HgN/A
2:00 PM82 °FScattered clouds.6 mph79%29.77 "Hg6 mi
1:30 PM81 °FLight rain. Broken clouds.13 mph79%29.77 "Hg6 mi
1:00 PM82 °FScattered clouds.10 mph74%29.80 "Hg6 mi
12:30 PM88 °FRain. Scattered clouds.2 mph62%29.83 "Hg6 mi
12:00 PM90 °FScattered clouds.2 mph59%29.83 "HgN/A
11:30 AM91 °FScattered clouds.No wind56%29.83 "HgN/A
11:00 AM91 °FScattered clouds.3 mph59%29.86 "HgN/A
10:30 AM91 °FScattered clouds.1 mph56%29.86 "HgN/A
10:00 AM91 °FScattered clouds.2 mph59%29.89 "HgN/A
9:30 AM90 °FPassing clouds.2 mph63%29.89 "HgN/A
9:00 AM88 °FPassing clouds.3 mph66%29.89 "HgN/A
8:30 AM88 °FPassing clouds.1 mph66%29.86 "HgN/A
8:00 AM84 °FPassing clouds.1 mph74%29.86 "HgN/A
7:30 AM82 °FPassing clouds.3 mph79%29.86 "HgN/A
7:00 AM82 °FPassing clouds.3 mph79%29.83 "Hg6 mi
6:30 AM81 °FScattered clouds.2 mph84%29.83 "Hg4 mi
6:00 AM81 °FScattered clouds.No wind84%29.83 "Hg4 mi
Weather by CustomWeather, © 2015

See weather overviewHow to use our weather pages